Bat Cave, NC

6:37 AM EDT on August 24, 2016 (GMT -0400)
Asheville Regional

Weather History for KAVL - October, 2013

Change the Weather History Date:

Monday, October 7, 2013

  Actual Average Record
Temperature  
Mean Temperature 59 °F 59 °F  
Max Temperature 65 °F 71 °F 85 °F (1951)
Min Temperature 53 °F 48 °F 27 °F (1935)
Degree Days  
Heating Degree Days 6 6  
Month to date heating degree days 6 39  
Since 1 July heating degree days 35 96  
Cooling Degree Days 0 1  
Month to date cooling degree days 16 7  
Year to date cooling degree days 859 859  
Growing Degree Days 10 (Base 50)    
Moisture  
Dew Point 56 °F    
Average Humidity 76    
Maximum Humidity 100    
Minimum Humidity 52    
Precipitation  
Precipitation 1.12 in 0.09 in 1.71 in (1976)
Month to date precipitation 1.61 0.72  
Year to date precipitation 63.42 36.14  
Snow  
Snow 0.00 in 0.00 in 0.00 in (2002)
Month to date snowfall 0.0 0.0  
Since 1 July snowfall 0.0 0.0  
Since 1 September snowfall 0.0 0.0  
Snow Depth 0.00 in    
Sea Level Pressure  
Sea Level Pressure 29.92 in    
Wind  
Wind Speed 11 mph (NNW)    
Max Wind Speed 24 mph    
Max Gust Speed 29 mph    
Visibility 7 miles    
Events Rain    
T = Trace of Precipitation, MM = Missing Value Source: NWS Daily Summary

Daily Weather History Graph

Daily Weather History Graph

Search for Another Location

Airport or City:

Trip Planner

Search our weather history database for the weather conditions in past years. The results will help you decide how hot, cold, wet, or windy it might be!

Date:

Astronomy

Oct. 07, 2013 Rise Set
Actual Time 7:30 AM EDT 7:05 PM EDT
Civil Twilight 7:04 AM EDT 7:30 PM EDT
Nautical Twilight 6:35 AM EDT 8:00 PM EDT
Astronomical Twilight 6:05 AM EDT 8:29 PM EDT
Moon 10:12 AM EDT (10/7) 8:56 PM EDT (10/7)
Length of Visible Light 12h 26m
Length of Day
11h 35m
Waxing Crescent, 8% of the Moon is Illuminated
Oct 7
Waxing Crescent
Oct 11
First Quarter
Oct 18
Full
Oct 26
Last Quarter
Nov 3
New

Hourly Weather History & Observations

Time (EDT) Temp. Dew Point Humidity Pressure Visibility Wind Dir Wind Speed Gust Speed Precip Events Conditions
12:06 AM 64.4 °F 62.6 °F 94% 29.97 in 7.0 mi Calm Calm - 0.01 in Rain Light Rain
12:24 AM 64.4 °F 62.6 °F 94% 29.96 in 2.5 mi WNW 3.5 mph - 0.07 in Rain Heavy Rain
12:35 AM 64.4 °F 62.6 °F 94% 29.96 in 2.0 mi Calm Calm - 0.14 in Rain Heavy Rain
12:44 AM 64.4 °F 62.6 °F 94% 29.96 in 1.2 mi Calm Calm - 0.22 in Rain Heavy Rain
12:54 AM 64.0 °F 63.0 °F 96% 29.88 in 1.2 mi Calm Calm - 0.34 in Rain Heavy Rain
1:06 AM 64.4 °F 62.6 °F 94% 29.93 in 2.0 mi North 4.6 mph - 0.19 in Rain Heavy Rain
1:16 AM 64.4 °F 62.6 °F 94% 29.93 in 3.0 mi Calm Calm - 0.25 in Rain Heavy Rain
1:36 AM 64.4 °F 62.6 °F 94% 29.94 in 1.8 mi SW 3.5 mph - 0.35 in Rain Heavy Rain
1:45 AM 64.4 °F 62.6 °F 94% 29.93 in 2.0 mi SE 5.8 mph - 0.45 in Rain Heavy Rain
1:54 AM 63.0 °F 62.1 °F 97% 29.85 in 3.0 mi Calm Calm - 0.52 in Rain Heavy Rain
2:54 AM 63.0 °F 61.0 °F 93% 29.82 in 10.0 mi Calm Calm - 0.08 in   Mostly Cloudy
3:33 AM 62.6 °F 62.6 °F 100% 29.88 in 2.5 mi Calm Calm - 0.07 in Rain Heavy Rain
3:43 AM 62.6 °F 62.6 °F 100% 29.88 in 5.0 mi Calm Calm - 0.08 in Rain Light Rain
3:54 AM 62.1 °F 62.1 °F 100% 29.81 in 9.0 mi South 3.5 mph - 0.08 in Rain Light Rain
3:58 AM 62.6 °F 62.6 °F 100% 29.88 in 9.0 mi Calm Calm - 0.00 in   Overcast
4:11 AM 62.6 °F 62.6 °F 100% 29.88 in 9.0 mi Calm Calm - 0.00 in Rain Light Rain
4:38 AM 62.6 °F 60.8 °F 94% 29.89 in 2.0 mi South 4.6 mph - 0.11 in Rain Heavy Rain
4:45 AM 62.6 °F 62.6 °F 100% 29.89 in 1.8 mi South 4.6 mph - 0.19 in Rain Heavy Rain
4:54 AM 62.1 °F 62.1 °F 100% 29.82 in 2.5 mi SSE 3.5 mph - 0.27 in Rain Rain
5:01 AM 62.6 °F 62.6 °F 100% 29.89 in 3.0 mi South 3.5 mph - 0.04 in Rain Heavy Rain
5:13 AM 62.6 °F 62.6 °F 100% 29.90 in 5.0 mi Calm Calm - 0.07 in Rain Rain
5:42 AM 62.6 °F 62.6 °F 100% 29.90 in 9.0 mi Calm Calm - 0.11 in Rain Light Rain
5:54 AM 62.1 °F 61.0 °F 96% 29.83 in 9.0 mi Calm Calm - 0.11 in Rain Light Rain
6:41 AM 62.6 °F 62.6 °F 100% 29.91 in 4.0 mi South 3.5 mph - 0.09 in Rain Rain
6:54 AM 63.0 °F 62.1 °F 97% 29.84 in 5.0 mi Calm Calm - 0.13 in Rain Rain
7:19 AM 60.8 °F 59.0 °F 94% 29.90 in 10.0 mi NW 15.0 mph - 0.02 in Rain Light Rain
7:28 AM 57.2 °F 57.2 °F 100% 29.92 in 10.0 mi NNW 15.0 mph - 0.02 in Rain Light Rain
7:46 AM 55.4 °F 55.4 °F 100% 29.93 in 10.0 mi NNW 13.8 mph 23.0 mph 0.02 in Rain Light Rain
7:54 AM 55.9 °F 54.0 °F 93% 29.88 in 7.0 mi NNW 15.0 mph 20.7 mph 0.03 in Rain Rain
8:03 AM 55.4 °F 53.6 °F 94% 29.93 in 9.0 mi North 16.1 mph 23.0 mph 0.01 in Rain Light Rain
8:38 AM 55.4 °F 53.6 °F 94% 29.93 in 10.0 mi NNW 16.1 mph 23.0 mph 0.01 in   Mostly Cloudy
8:54 AM 55.0 °F 53.1 °F 93% 29.88 in 10.0 mi NNW 18.4 mph 23.0 mph 0.01 in   Overcast
9:54 AM 55.9 °F 53.1 °F 90% 29.91 in 10.0 mi NNW 17.3 mph - N/A   Overcast
10:54 AM 57.9 °F 53.1 °F 84% 29.91 in 10.0 mi NNW 18.4 mph - N/A   Mostly Cloudy
11:29 AM 60.8 °F 53.6 °F 77% 29.96 in 10.0 mi North 11.5 mph 21.9 mph N/A   Mostly Cloudy
11:54 AM 59.0 °F 52.0 °F 78% 29.93 in 10.0 mi North 16.1 mph 27.6 mph N/A   Mostly Cloudy
12:08 PM 59.0 °F 51.8 °F 77% 29.98 in 10.0 mi North 20.7 mph 26.5 mph N/A   Overcast
12:43 PM 59.0 °F 51.8 °F 77% 29.98 in 10.0 mi North 18.4 mph 26.5 mph N/A   Overcast
12:54 PM 60.1 °F 52.0 °F 75% 29.93 in 10.0 mi North 13.8 mph 26.5 mph N/A   Overcast
1:54 PM 60.1 °F 51.1 °F 72% 29.93 in 10.0 mi North 11.5 mph 20.7 mph N/A   Overcast
2:54 PM 61.0 °F 51.1 °F 70% 29.92 in 10.0 mi North 13.8 mph 19.6 mph N/A   Mostly Cloudy
3:54 PM 63.0 °F 48.0 °F 58% 29.91 in 10.0 mi NNW 18.4 mph 25.3 mph N/A   Mostly Cloudy
4:01 PM 64.4 °F 48.2 °F 56% 29.96 in 10.0 mi NNW 19.6 mph 24.2 mph N/A   Clear
4:54 PM 64.0 °F 46.9 °F 54% 29.91 in 10.0 mi NNW 19.6 mph 26.5 mph N/A   Clear
5:54 PM 64.0 °F 46.9 °F 54% 29.93 in 10.0 mi NNW 12.7 mph 20.7 mph N/A   Clear
6:54 PM 60.1 °F 48.0 °F 64% 29.95 in 10.0 mi NNW 16.1 mph 20.7 mph N/A   Clear
7:54 PM 57.9 °F 48.0 °F 70% 29.97 in 10.0 mi NNW 13.8 mph 23.0 mph N/A   Clear
8:54 PM 57.0 °F 48.0 °F 72% 30.00 in 10.0 mi North 9.2 mph 18.4 mph N/A   Clear
9:54 PM 55.9 °F 48.0 °F 75% 30.02 in 10.0 mi North 9.2 mph - N/A   Clear
10:54 PM 55.0 °F 48.0 °F 77% 30.04 in 10.0 mi North 8.1 mph - N/A   Clear
11:54 PM 54.0 °F 48.0 °F 80% 30.05 in 10.0 mi North 8.1 mph - N/A   Clear